STARLINK-1171, 45062

Orbit data source: Space-Track

STARLINK-1171, 45062 is a payload satellite owned by SpaceX/Seattle (US) in LEO that was launched on Wed, 29 Jan 2020 UTC via an FALCON 9 launch vehicle from the Air Force Eastern Test Range (AFETR). Payload-class satellites include a variety of spacecraft equipped with specific instruments for various scientific and technological missions. These include communications satellites like Starlink; space stations such as the ISS; scientific satellites like the Hubble; Earth observation satellites from companies like Planet Labs, Umbra, and HawkEye 360; GPS; miniature CubeSats for education and research; and military/defense satellites.

Loading next visibility...
Identifier
45062, 2020-006U
Orbit
LEO
Country
Flag of USUS
Related business
Manufacturer
SpaceX/Seattle
Mission
Partially operational Commercial Communications
Bus & Motor
STARLINK, Unknown motor
Mass
260 kg wet, ~248 kg dry
Launch date (UTC)
2020-01-29 (6 years ago)
Launch vehicle
FALCON 9
Launch site
Air Force Eastern Test Range (AFETR)
Object type
Payload
Rocket body
Debris
Shape & HBR
Box + 1 Pan, 10.1 m
Radar Cross Section
13.562 m², Large (>1 m²)

Expand to show TLE details & history
Last TLE update: 4 hours ago

TLE from 4 hours ago
0 STARLINK-1171
1 45062U 20006U   26037.91671296  .00186216  00000-0  30481-2 0  9996
2 45062  53.0492  38.1822 0003733 298.0682  47.8093 15.51350566  5909
Epoch: 2026-02-06T22:00Z
TLE epoch observation values (Epoch: 2026-02-06T22:00:03.999Z)
Latitude
-11.36466°
Longitude
-77.52918°
Altitude
414.141 km
Speed
7.664 km/s
True Right ascension
01h 58m 08s
True Declination
-11° 17' 42"
Sunlit
Object was in daylight at epoch
Visualization orbit readout
Latitude
Unknown
Longitude
Unknown
Altitude
Unknown
Speed
Unknown
Apparent Right ascension
Unknown
Apparent Declination
Unknown
Sunlit
N/A
Visualization observer readout
Local Sidereal Time
03:50:02
Azimuth
Unknown
Elevation
Unknown
Doppler factor
Unknown
Orbital elements
Apogee altitude
415.594 km
Perigee altitude
410.523 km
Semi-major axis
6,791.196 km
Eccentricity
0.00037
Inclination
53.0492°
RAAN
38.1822°
Arg. of periapsis
298.0682°
True anomaly
47.841°
Mean anomaly
47.8093°
Eccentric anomaly
47.82515°
Mean motion
3.87814 °/min
Orbital period
92.83 mins
BSTAR
0.0030481
Loading maneuver chart data...
Computing Atmospheric mass density...

Documentation

Showing up to 5 results
|